Home   Weather   Fosnavåg   Past weeks
Flag for Norway

Past Weather in Fosnavåg, Norway — Yesterday and Last 2 Weeks

Now
50 °F

Cool.


Feels Like: 45 °F
Forecast: 49 / 43 °F
Wind: 14 mph from North

Location: Svinoy Fyr

Current Time: Sep 18, 2019 at 1:41:34 am

Latest Report: Sep 18, 2019 at 1:00 am


Visibility: N/A

Pressure: 30.02 "Hg

Humidity: 76%

Dew Point: 43 °F

Location of FosnavågLocation

Past Weather in Fosnavåg — Graph

°F

Fosnavåg Temperature Yesterday

Maximum temperature yesterday: 51 °F (at 3:00 pm)
Minimum temperature yesterday: 46 °F (at 2:00 am)
Average temperature yesterday: 48 °F

High & Low Weather Summary for the Past Weeks

 TemperatureHumidityPressure
High60 °F (Sep 11, 6:00 am)98% (Sep 11, 2:00 pm)30.20 "Hg (Sep 11, 2:00 pm)
Low46 °F (Sep 17, 2:00 am)55% (Sep 11, 7:00 am)29.09 "Hg (Sep 15, 8:00 am)
Average53 °F76%29.79 "Hg
* Reported Sep 3 12:00 pm — Sep 18 12:00 am, Fosnavåg. Weather by CustomWeather, © 2019

Note: Actual official high and low records may vary slightly from our data, if they occured in-between our weather recording intervals... More about our weather records

Advertising

Fosnavåg Weather History for the Previous 24 Hours

Scroll right to see more
 ConditionsComfort  
Time TempWeatherWind HumidityBarometerVisibility
12:00 am
Wed, Sep 18
50 °FCool.8 mph82%30.01 "HgN/A
11:00 pm
Tue, Sep 17
50 °FCool.8 mph80%30.01 "HgN/A
10:00 pm50 °FCool.12 mph87%30.00 "HgN/A
9:00 pm49 °FCool.14 mph84%29.98 "HgN/A
8:00 pm49 °FCool.14 mph80%29.97 "HgN/A
6:00 pm49 °FCool.12 mph86%29.96 "HgN/A
5:00 pm51 °FCool.20 mph80%29.94 "HgN/A
4:00 pm50 °FCool.18 mph81%29.91 "HgN/A
3:00 pm51 °FCool.18 mph79%29.88 "HgN/A
2:00 pm50 °FCool.17 mph81%29.86 "HgN/A
1:00 pm49 °FCool.21 mph83%29.84 "HgN/A
12:00 pm49 °FCool.16 mph82%29.80 "HgN/A
11:00 am48 °FCool.12 mph86%29.79 "HgN/A
10:00 am48 °FCool.9 mph78%29.76 "HgN/A
9:00 am48 °FCool.7 mph71%29.73 "HgN/A
8:00 am47 °FCool.5 mph71%29.71 "HgN/A
7:00 am47 °FCool.3 mph64%29.69 "HgN/A
6:00 am47 °FCool.6 mph63%29.67 "HgN/A
5:00 am47 °FCool.7 mph72%29.65 "HgN/A
4:00 am47 °FCool.6 mph66%29.64 "HgN/A
3:00 am47 °FCool.7 mph63%29.64 "HgN/A
2:00 am46 °FCool.7 mph71%29.64 "HgN/A
1:00 am48 °FCool.10 mph65%29.64 "HgN/A
Weather by CustomWeather, © 2019

See weather overview